Regional Weather Roundup
Issued by NWS

Home | Current Version | Previous Version | Graphics & Text | Print | Product List | Glossary On
Versions: 1 2 3 4 5 6 7 8 9 10 11 12 13 14 15 16 17 18 19 20 21 22 23 24 25 26 27 28 29 30 31 32 33 34 35 36 37 38 39 40 41 42 43 44 45 46 47 48 49 50
000
ASUS43 KMKX 131110
RWRWI

WISCONSIN REGIONAL WEATHER ROUNDUP
NATIONAL WEATHER SERVICE MILWAUKEE/SULLIVAN WI
500 AM CST WED DEC 13 2017

NOTE: "FAIR" INDICATES FEW OR NO CLOUDS BELOW 12,000 FEET WITH NO
SIGNIFICANT WEATHER AND/OR OBSTRUCTIONS TO VISIBILITY.

WIZ001-002-006>008-014>016-023>028-131200-
NORTHWEST WISCONSIN

CITY           SKY/WX    TMP DP  RH WIND       PRES   REMARKS
SUPERIOR ARPT  LGT SNOW  19  17  92 E6        29.47F VSB 1   WCI  10
ASHLAND        LGT SNOW  15  12  88 NE8       29.49F VSB 3/4 WCI   4
HAYWARD        LGT SNOW  18  13  80 VRB3      29.40F VSB 3/4
SIREN          LGT SNOW  21  18  88 SE7       29.39F WCI  12
CUMBERLAND     CLOUDY    19  14  79 SE7       29.40R WCI  10
RICE LAKE      CLOUDY    21  17  83 CALM      29.43R
CHETEK         CLOUDY    20  16  82 SE7       29.41F WCI  11
LADYSMITH      LGT SNOW  19  15  86 SE8       29.45F WCI   9
EAU CLAIRE     CLOUDY    21  14  74 SE10      29.41F WCI  10
MENOMONIE      CLOUDY    23  17  79 E6        29.41S WCI  16
NEW RICHMOND   CLOUDY    22  17  79 SE7       29.38F WCI  14
OSCEOLA        CLOUDY    24  19  81 E8        29.40F WCI  14
$$

WIZ003>005-009-010-017-018-131200-
NORTH CENTRAL WISCONSIN

CITY           SKY/WX    TMP DP  RH WIND       PRES   REMARKS
MANITOWISH WTR LGT SNOW  12  10  94 SE7       29.47F VSB 1   WCI   1
ARBOR VITAE    LGT SNOW  14  11  87 SE8       29.48F VSB 1   WCI   3
WOODRUFF       LGT SNOW  14  11  87 SE8       29.48F VSB 1   WCI   3
RHINELANDER    LGT SNOW  12   9  87 SE10      29.49F FOG     WCI  -1
EAGLE RIVER    FLURRIES  11   6  79 SE8       29.50F WCI  -1
LAND O LAKES   LGT SNOW  11   7  85 SE9       29.52F WCI  -2
PHILLIPS       FLURRIES  14  11  89 SE9       29.45F WCI   1
TOMAHAWK       FLURRIES  13  10  87 SE3       29.49F
MEDFORD        LGT SNOW  15  12  88 SE10G16   29.42F WCI   2
MERRILL        CLOUDY    13  10  87 SE9       29.51F WCI   1
$$

WIZ029-030-035-036-043>047-131200-
CENTRAL WISCONSIN

CITY           SKY/WX    TMP DP  RH WIND       PRES   REMARKS
WAUSAU         CLOUDY    14  10  84 SE9       29.51F WCI   2
MOSINEE        CLOUDY    16  12  86 E10       29.52F WCI   3
MARSHFIELD     FLURRIES  17  13  84 SE10      29.46F WCI   5
STEVENS POINT  CLOUDY    15  10  83 E10       29.52F WCI   2
WAUPACA        CLOUDY    20  12  72 E8        29.57F WCI  10
WAUTOMA        LGT SNOW  19  14  79 SE8       29.55F VSB 1   WCI   9
WISC RAPIDS    LGT SNOW  18  13  80 SE8       29.51F WCI   8
CAMP DOUGLAS   CLOUDY    22  15  72 SE10      29.46F WCI  11
$$

WIZ011>013-019>022-031-037>040-048>050-131200-
NORTHEAST WISCONSIN

CITY           SKY/WX    TMP DP  RH WIND       PRES   REMARKS
ANTIGO         FLURRIES  10   8  92 SE12      29.52F WCI  -4
SHAWANO        CLOUDY    17  12  81 E7        29.62F WCI   7
OCONTO         CLOUDY    16   8  71 SE6       29.66F WCI   7
STURGEON BAY   FLURRIES  16  10  77 S3        29.68F
GREEN BAY      LGT SNOW  16  11  80 SE8       29.65F WCI   5
MANITOWOC      MIX PCPN  18  15  88 S3        29.66F FOG
APPLETON       CLOUDY    18  10  73 E10       29.58F WCI   6
CLINTONVILLE   CLOUDY    16  12  86 SE8       29.59F WCI   5
OSHKOSH        CLOUDY    19  11  70 SE12      29.58F WCI   7
$$

WIZ032>034-041-042-053>061-131200-
SOUTHWEST WISCONSIN

CITY           SKY/WX    TMP DP  RH WIND       PRES   REMARKS
LA CROSSE      CLOUDY    29  20  69 S14       29.42F WCI  18
SPARTA         CLOUDY    27  19  73 S5        29.45F WCI  22
VIROQUA        CLOUDY    25  20  83 SE10      29.44F WCI  14
BOSCOBEL       CLOUDY    29  18  63 VRB3      29.51F
PRAIRIE DU CHI CLOUDY    31  20  64 E7        29.48F WCI  24
PLATTEVILLE    CLOUDY    27  19  72 S14G20    29.52F WCI  16
$$

WIZ056-057-062-063-064-067-068-131200-
SOUTH CENTRAL WISCONSIN

CITY           SKY/WX    TMP DP  RH WIND       PRES   REMARKS
REEDSBURG      CLOUDY    25  14  64 S7        29.51F WCI  17
BARABOO/DELLS  CLOUDY    25  14  64 S9        29.51F WCI  15
LONE ROCK      CLOUDY    27  18  69 SE6       29.53F WCI  20
MINERAL POINT  PTCLDY    27  18  69 SE13      29.50F WCI  16
MADISON        CLOUDY    25  13  60 S16       29.56F WCI  12
MIDDLETON      CLOUDY    28  15  60 S13       29.55F WCI  17
WATERTOWN      CLOUDY    22  14  69 SE7       29.61F WCI  14
MONROE         CLOUDY    27  14  59 S17       29.56F WCI  14
JANESVILLE     CLOUDY    28  14  54 S8        29.62F WCI  20
$$

WIZ051-052-058>065-066-070>072-131200-
SOUTHEAST WISCONSIN

CITY           SKY/WX    TMP DP  RH WIND       PRES   REMARKS
MILWAUKEE      CLOUDY    23  11  60 S10       29.68F WCI  12
WAUKESHA       CLOUDY    19  10  68 SE12      29.65F WCI   7
MILWAUKEE/TIMM CLOUDY    21   9  58 S10       29.67F WCI  10
RACINE         CLOUDY    24  10  55 S10       29.70F WCI  14
BURLINGTON       N/A    N/A N/A N/A MISG        N/A
KENOSHA        CLOUDY    23  10  57 S10       29.69F WCI  12
FOND DU LAC    CLOUDY    21  10  62 SE13      29.59F WCI   9
SHEBOYGAN      CLOUDY    18  15  88 SE3       29.65F
WEST BEND      CLOUDY    19  10  68 S7        29.63F WCI  10
JUNEAU         CLOUDY    21  11  66 SE13G20   29.60F WCI   8
$$

LSZ147-162-131200-
LAKE SUPERIOR

STATION/POSITION TIME  TEMP    WIND        PRES    WAVE
                       AIR SEA DIR/SP/G            HT/PER
                 (UTC) (F)     (DEG/KT/KT) (MB)    (FT/S)
DEVILS ISLAND    1100   21     100/ 18/ 20 1000.7F
SAXON HARBOR     1040   16                  999.3F
$$

LMZ867-665-643>646-131200-
LAKE MICHIGAN

STATION/POSITION TIME  TEMP    WIND        PRES    WAVE
                       AIR SEA DIR/SP/G            HT/PER
                 (UTC) (F)     (DEG/KT/KT) (MB)    (FT/S)
NORTHPORT PIER   1042   19     150/  2/  9 1005.8F
KEWAUNEE LAKESHO 1042   20     170/  9/ 15 1004.7F
SHEBOYGAN LAKESH 1100   25     170/ 20/ 24 1004.9F
PORT WASHINGTON  1040   26     180/ 13/ 18 1006.1F
MILWAUKEE LAKESH 1050   24     190/ 12/ 13   N/A
KENOSHA   LAKESH 1100   24     190/ 16/ 20 1005.8
$$

TC  - TEMPERATURE IN CELSIUS
VSB - VISIBILITY IN STATUTE MILES
WCI - WIND CHILL INDEX
HX  - HEAT INDEX





USA.gov is the U.S. government's official web portal to all federal, state and local government web resources and services.